Flag for U.S.A. Weather past 2 weeks in San Bernardino, California, U.S.A.

Now
92 °F

Sunny.


Feels Like: 89 °F
Forecast: 62 / 94 °F
Wind: 3 mph from North

Location: Riverside Municipal Airport

Current Time: Jul 28, 2015 at 3:19:50 PM

Latest Report: Jul 28, 2015 at 1:53 PM


Visibility: 10 mi

Pressure: 29.81 "Hg

Humidity: 26%

Dew point: 52 °F

Location of San BernardinoLocation

Historic Weather in San Bernardino — Graph

°F

San Bernardino temperature yesterday

Maximum temperature yesterday: 88 °F (at 2:53 PM)
Minimum temperature yesterday: 65 °F (at 1:53 AM)
Average temperature yesterday: 74 °F

Past Weeks' High & Low Weather Summary

 TemperatureHumidityPressure
High95 °F (Jul 17, 2:53 PM)93% (Jul 18, 4:53 PM)30.05 "Hg (Jul 18, 4:53 PM)
Low62 °F (Jul 15, 3:53 AM)19% (Jul 25, 3:53 PM)29.73 "Hg (Jul 17, 4:53 PM)
Average76 °F63%29.89 "Hg
* Reported Jul 13 1:53 PM — Jul 28 1:53 PM, San Bernardino, Weather by CustomWeather, © 2015

Note: Actual official high and low records may vary slightly from our data, if they occured in-between our weather recording intervals... More about our weather records

Advertising

San Bernardino weather history for previous 24 hours

 ConditionsComfort  
Time TempWeatherWind HumidityBarometerVisibility
1:53 PM
Tue, Jul 28
92 °FSunny.3 mph26%29.81 "Hg10 mi
12:53 PM89 °FSunny.8 mph31%29.83 "Hg10 mi
11:53 AM84 °FSunny.No wind40%29.85 "Hg10 mi
10:53 AM79 °FSunny.5 mph52%29.86 "Hg10 mi
9:53 AM74 °FSunny.No wind62%29.87 "Hg10 mi
8:53 AM71 °FSunny.No wind71%29.88 "Hg10 mi
7:53 AM68 °FSunny.3 mph76%29.87 "Hg10 mi
6:53 AM65 °FClear.No wind81%29.86 "Hg10 mi
5:53 AM65 °FClear.No wind81%29.86 "Hg10 mi
4:53 AM66 °FClear.No wind78%29.85 "Hg10 mi
3:53 AM67 °FClear.No wind76%29.84 "Hg10 mi
2:53 AM67 °FClear.No wind76%29.84 "Hg10 mi
1:53 AM69 °FClear.No wind70%29.85 "Hg10 mi
12:53 AM68 °FClear.No wind73%29.86 "Hg10 mi
11:53 PM
Mon, Jul 27
70 °FClear.No wind66%29.87 "Hg10 mi
10:53 PM71 °FClear.No wind63%29.87 "Hg10 mi
9:53 PM72 °FClear.5 mph61%29.87 "Hg10 mi
8:53 PM74 °FSunny.8 mph57%29.85 "Hg10 mi
7:53 PM77 °FSunny.8 mph52%29.83 "Hg10 mi
6:53 PM81 °FSunny.9 mph45%29.81 "Hg10 mi
5:53 PM83 °FSunny.12 mph41%29.80 "Hg10 mi
4:53 PM86 °FSunny.12 mph31%29.80 "Hg10 mi
3:53 PM86 °FSunny.13 mph37%29.81 "Hg10 mi
Weather by CustomWeather, © 2015

See weather overviewHow to use our weather pages